Quillayute, WA
on Sunday, February 3, 2013

Sunday
Previous Day Next Day
Daily Summary
 ActualAverageRecord
Temperature
Mean Temperature °F 42°F  
Max Temperature 50°F 48°F 64°F (1992)
Min Temperature 34°F 36°F 15°F (1972)
Degree Days
Heating Degree Days 23 23  
Month to date heating degree days 62 69  
Since 1 July heating degree days 3170 3274  
Cooling Degree Days 0 0  
Month to date cooling degree days 0 0  
Year to date cooling degree days 0 0  
Moisture
Dew Point 40°F   
Average Humidity 85    
Maximum Humidity 89    
Minimum Humidity 80    
Precipitation
Precipitation 0.08 in 0.39 in 2.57 in (1974)
Month to date precipitation 0.09 1.16  
Year to date precipitation 10.43 15.77  
Wind
Wind Speed 1 mph   
Max Wind Speed 8 mph   
Max Gust Speed 10 mph   
Visibility 2 miles   
Events Fog , Rain   

Key: T is trace of precipitation, MM is missing value
Source: NWS Daily Summary
Time(PST)TemperatureDew PointHumidity Pressure Visibility Wind DirectionWind SpeedGust SpeedPrecipitationEvents Conditions
12:00 AM 33.8°F 30.2°F 87% 30.27 in 2.0 miles Calm Calm - N/A   Scattered Clouds
12:08 AM 35.6°F 32.0°F 87% 30.27 in 3.0 miles Calm Calm - N/A   Mostly Cloudy
12:11 AM 33.8°F 30.2°F 87% 30.27 in 2.5 miles Calm Calm - N/A   Scattered Clouds
12:18 AM 35.6°F 30.2°F 81% 30.27 in 1.2 miles NNE 3.5 mph - N/A   Scattered Clouds
12:24 AM 33.8°F 30.2°F 87% 30.28 in 2.0 miles NNW 3.5 mph - N/A   Scattered Clouds
12:33 AM 35.6°F 30.2°F 81% 30.28 in 4.0 miles NE 3.5 mph - N/A   Scattered Clouds
12:42 AM 37.4°F 33.8°F 87% 30.27 in 5.0 miles East 4.6 mph - N/A   Mostly Cloudy
12:49 AM 35.6°F 33.8°F 93% 30.26 in 1.2 miles SE 3.5 mph - N/A   Mostly Cloudy
12:53 AM 35.1°F 32.0°F 89% 30.26 in 0.5 miles ESE 3.5 mph - N/A Fog Fog
12:59 AM 35.6°F 32.0°F 87% 30.25 in 0.2 miles Calm Calm - N/A Fog Fog
1:08 AM 35.6°F 33.8°F 93% 30.24 in 0.8 miles Calm Calm - N/A   Overcast
1:11 AM 35.6°F 33.8°F 93% 30.24 in 1.5 miles Calm Calm - N/A   Overcast
1:13 AM 35.6°F 33.8°F 93% 30.24 in 3.0 miles Calm Calm - N/A   Overcast
1:53 AM 39.0°F 35.1°F 86% 30.26 in 4.0 miles Calm Calm - N/A   Overcast
2:53 AM 39.9°F 36.0°F 86% 30.25 in 5.0 miles Calm Calm - N/A   Overcast
3:53 AM 41.0°F 37.9°F 89% 30.25 in 5.0 miles Calm Calm - N/A   Overcast
4:53 AM 41.0°F 37.9°F 89% 30.26 in 4.0 miles Calm Calm - N/A   Overcast
5:53 AM 41.0°F 37.9°F 89% 30.26 in 5.0 miles Calm Calm - N/A   Overcast
6:53 AM 42.1°F 37.9°F 85% 30.25 in 5.0 miles Calm Calm - N/A   Overcast
7:53 AM 42.1°F 37.9°F 85% 30.27 in 4.0 miles Calm Calm - N/A   Overcast
8:05 AM 42.8°F 39.2°F 87% 30.26 in 4.0 miles Calm Calm - N/A   Overcast
8:36 AM 42.8°F 39.2°F 87% 30.26 in 2.0 miles Calm Calm - N/A   Overcast
8:53 AM 43.0°F 39.0°F 86% 30.27 in 4.0 miles Calm Calm - N/A   Overcast
9:19 AM 42.8°F 39.2°F 87% 30.26 in 2.5 miles Calm Calm - N/A   Overcast
9:30 AM 42.8°F 39.2°F 87% 30.26 in 3.0 miles Calm Calm - N/A   Overcast
9:40 AM 44.6°F 39.2°F 81% 30.26 in 4.0 miles Calm Calm - N/A   Overcast
9:53 AM 45.0°F 41.0°F 86% 30.27 in 4.0 miles Calm Calm - N/A   Overcast
10:24 AM 44.6°F 41.0°F 87% 30.29 in 2.5 miles Calm Calm - N/A   Overcast
10:42 AM 46.4°F 42.8°F 87% 30.29 in 1.8 miles Calm Calm - N/A   Overcast
10:53 AM 46.0°F 42.1°F 86% 30.29 in 1.5 miles Calm Calm - N/A   Overcast
11:03 AM 46.4°F 42.8°F 87% 30.29 in 1.2 miles Calm Calm - 0.00 in Rain Light Rain
11:20 AM 46.4°F 42.8°F 87% 30.29 in 1.5 miles Calm Calm - 0.00 in   Overcast
11:53 AM 48.0°F 44.1°F 86% 30.27 in 2.0 miles Calm Calm - 0.00 in   Overcast
12:01 PM 48.2°F 44.6°F 87% 30.26 in 1.5 miles Calm Calm - N/A   Overcast
12:17 PM 48.2°F 44.6°F 87% 30.25 in 2.0 miles South 3.5 mph - N/A   Haze
12:30 PM 48.2°F 44.6°F 87% 30.25 in 3.0 miles Variable 3.5 mph - N/A   Haze
12:37 PM 48.2°F 44.6°F 87% 30.25 in 3.0 miles South 4.6 mph - N/A   Haze
12:53 PM 48.9°F 43.0°F 80% 30.25 in 3.0 miles South 3.5 mph - N/A   Haze
1:00 PM 48.2°F 42.8°F 82% 30.25 in 3.0 miles South 3.5 mph - N/A   Haze
1:27 PM 48.2°F 42.8°F 82% 30.25 in 3.0 miles SSW 4.6 mph - N/A   Haze
1:39 PM 48.2°F 42.8°F 82% 30.25 in 3.0 miles SSW 5.8 mph - N/A   Haze
1:53 PM 48.0°F 42.1°F 80% 30.25 in 3.0 miles South 4.6 mph - N/A   Haze
2:53 PM 46.9°F 41.0°F 80% 30.25 in 4.0 miles SSW 4.6 mph - N/A   Haze
3:15 PM 46.4°F 41.0°F 81% 30.25 in 2.5 miles SW 5.8 mph - 0.01 in Rain Light Rain
3:53 PM 46.0°F 42.1°F 86% 30.25 in 2.0 miles Variable 3.5 mph - 0.02 in Rain Light Rain
4:03 PM 46.4°F 42.8°F 87% 30.24 in 2.0 miles Calm Calm - 0.00 in Rain Light Rain
4:21 PM 46.4°F 42.8°F 87% 30.24 in 2.0 miles South 3.5 mph - 0.01 in Rain Light Rain
4:42 PM 46.4°F 41.0°F 81% 30.23 in 2.0 miles South 4.6 mph - 0.01 in Rain Light Rain
4:53 PM 46.0°F 41.0°F 83% 30.24 in 2.0 miles South 5.8 mph - 0.01 in Rain Light Rain
5:21 PM 44.6°F 41.0°F 87% 30.24 in 2.5 miles SSW 3.5 mph - 0.01 in Rain Light Rain
5:28 PM 44.6°F 41.0°F 87% 30.24 in 3.0 miles SSW 3.5 mph - 0.01 in Rain Light Rain
5:39 PM 44.6°F 41.0°F 87% 30.24 in 2.5 miles SSW 3.5 mph - 0.01 in Rain Light Rain
5:44 PM 44.6°F 41.0°F 87% 30.24 in 2.5 miles SSW 3.5 mph - 0.01 in Rain Light Rain
5:53 PM 45.0°F 41.0°F 86% 30.25 in 2.5 miles Calm Calm - 0.01 in Rain Light Rain
6:13 PM 44.6°F 42.8°F 93% 30.24 in 2.5 miles Calm Calm - 0.01 in Rain Light Rain
6:22 PM 44.6°F 41.0°F 87% 30.24 in 2.5 miles Calm Calm - 0.02 in Rain Light Rain
6:53 PM 45.0°F 41.0°F 86% 30.24 in 2.5 miles Calm Calm - 0.03 in Rain Light Rain
7:42 PM 44.6°F 41.0°F 87% 30.24 in 2.5 miles Calm Calm - 0.01 in   Overcast
7:53 PM 44.6°F 41.0°F 87% 30.23 in 2.5 miles Calm Calm - N/A   Overcast
8:05 PM 44.6°F 41.0°F 87% 30.23 in 2.5 miles Calm Calm - N/A   Overcast
8:18 PM 44.6°F 41.0°F 87% 30.23 in 2.0 miles Calm Calm - N/A   Overcast
8:21 PM 44.6°F 41.0°F 87% 30.23 in 1.2 miles Calm Calm - N/A   Overcast
8:28 PM 44.6°F 41.0°F 87% 30.23 in 0.2 miles Calm Calm - N/A Fog Fog
8:38 PM 44.6°F 41.0°F 87% 30.23 in 0.5 miles Calm Calm - N/A Fog Fog
8:53 PM 45.0°F 41.0°F 86% 30.23 in 0.5 miles Calm Calm - N/A Fog Fog
9:38 PM 44.6°F 41.0°F 87% 30.22 in 0.2 miles Calm Calm - N/A Fog Fog
9:45 PM 44.6°F 41.0°F 87% 30.22 in 0.8 miles Calm Calm - N/A   Overcast
9:53 PM 44.1°F 41.0°F 89% 30.23 in 0.5 miles Calm Calm - N/A Fog Fog
10:01 PM 44.6°F 41.0°F 87% 30.23 in 0.8 miles Calm Calm - N/A   Overcast
10:05 PM 44.6°F 41.0°F 87% 30.23 in 1.5 miles Calm Calm - N/A   Overcast
10:30 PM 44.6°F 41.0°F 87% 30.22 in 1.2 miles Calm Calm - N/A   Overcast
10:44 PM 44.6°F 41.0°F 87% 30.21 in 1.8 miles ESE 4.6 mph - N/A   Overcast
10:53 PM 44.1°F 41.0°F 89% 30.21 in 2.0 miles ESE 4.6 mph - N/A   Overcast
11:03 PM 44.6°F 41.0°F 87% 30.20 in 2.0 miles Calm Calm - N/A   Overcast
11:09 PM 44.6°F 41.0°F 87% 30.20 in 1.5 miles Calm Calm - N/A   Overcast
11:23 PM 44.6°F 39.2°F 81% 30.19 in 2.5 miles Calm Calm - N/A   Overcast
11:36 PM 44.6°F 41.0°F 87% 30.19 in 2.5 miles Calm Calm - N/A   Overcast
11:39 PM 44.6°F 41.0°F 87% 30.19 in 1.2 miles Calm Calm - N/A   Overcast
11:44 PM 42.8°F 39.2°F 87% 30.19 in 0.5 miles Calm Calm - N/A Fog Fog
11:53 PM 43.0°F 39.9°F 89% 30.20 in 0.8 miles Calm Calm - N/A   Overcast
11:57 PM 42.8°F 39.2°F 87% 30.19 in 1.2 miles Calm Calm - N/A   Overcast
Moon Phase
Feb. 03 Feb. 10 Feb. 17 Feb. 25 Mar. 04
Sunrise:07:42 AM (PST) Moon Rise:01:18 AM (PST)2/3
Sunset:05:22 PM (PST) Moon Set:11:00 AM (PST)2/3

Copyright © 2014 The Weather Underground, Inc.